Home   Weather   Tarn Taran Sahib   Past weeks

Flag for India Past Weather in Tarn Taran Sahib, Punjab, India — Yesterday and Last 2 Weeks

Now
82 °F

Passing clouds.


Feels Like: 81 °F
Forecast: 69 / 98 °F
Wind: 16 mph from Northwest

Location: Amritsar Airport

Current Time: Apr 26, 2017 at 9:21:23 pm

Latest Report: Apr 26, 2017 at 9:00 pm


Visibility: 3 mi

Pressure: 29.77 "Hg

Humidity: 30%

Dew Point: 48 °F

Location of Tarn Taran SahibLocation

Past Weather in Tarn Taran Sahib — Graph

°F

Tarn Taran Sahib Temperature Yesterday

Maximum temperature yesterday: 93 °F (at 2:00 pm)
Minimum temperature yesterday: 66 °F (at 6:00 am)
Average temperature yesterday: 83 °F

High & Low Weather Summary for the Past Weeks

 TemperatureHumidityPressure
High109 °F (Apr 18, 4:30 pm)100% (Apr 22, 4:30 am)29.86 "Hg (Apr 22, 4:30 am)
Low59 °F (Apr 13, 5:30 am)8% (Apr 19, 1:00 pm)29.45 "Hg (Apr 20, 5:00 pm)
Average85 °F39%29.68 "Hg
* Reported Apr 11 7:30 pm — Apr 26 8:00 pm, Tarn Taran Sahib, Weather by CustomWeather, © 2017

Note: Actual official high and low records may vary slightly from our data, if they occured in-between our weather recording intervals... More about our weather records

Advertising

Tarn Taran Sahib Weather History for the Previous 24 Hours

Scroll right to see more
 ConditionsComfort  
Time TempWeatherWind HumidityBarometerVisibility
8:00 pm
Wed, Apr 26
86 °FHaze.3 mph29%29.71 "Hg3 mi
7:30 pm88 °FHaze.6 mph27%29.71 "Hg3 mi
7:00 pm91 °FScattered clouds.2 mph23%29.68 "Hg3 mi
6:30 pm93 °FScattered clouds.2 mph21%29.68 "Hg4 mi
5:30 pm95 °FScattered clouds.9 mph19%29.68 "Hg4 mi
5:00 pm95 °FScattered clouds.7 mph18%29.68 "Hg4 mi
4:30 pm95 °FScattered clouds.6 mph18%29.68 "Hg4 mi
4:00 pm97 °FScattered clouds.No wind17%29.68 "Hg4 mi
3:00 pm97 °FScattered clouds.3 mph16%29.68 "Hg4 mi
2:30 pm95 °FScattered clouds.2 mph19%29.71 "Hg4 mi
2:00 pm95 °FScattered clouds.9 mph18%29.71 "Hg4 mi
1:30 pm93 °FScattered clouds.5 mph20%29.71 "Hg4 mi
1:00 pm93 °FScattered clouds.6 mph20%29.74 "Hg4 mi
12:30 pm93 °FScattered clouds.5 mph20%29.74 "Hg4 mi
12:00 pm91 °FScattered clouds.2 mph23%29.74 "Hg4 mi
11:30 am91 °FHaze.2 mph23%29.77 "Hg4 mi
10:30 am90 °FHaze.2 mph24%29.77 "Hg3 mi
10:00 am88 °FHaze.2 mph27%29.77 "Hg2 mi
9:30 am86 °FHaze.2 mph31%29.77 "Hg2 mi
9:00 am82 °FHaze.2 mph37%29.77 "Hg2 mi
8:30 am79 °FHaze.2 mph45%29.77 "Hg2 mi
8:00 am75 °FHaze.2 mph50%29.74 "Hg2 mi
7:30 am72 °FHaze.No wind61%29.74 "Hg2 mi
7:00 am68 °FHaze.No wind69%29.71 "Hg2 mi
6:30 am66 °FHaze.No wind68%29.71 "Hg2 mi
6:00 am66 °FHaze.2 mph68%29.68 "Hg2 mi
5:30 am66 °FHaze.No wind73%29.68 "Hg2 mi
5:00 am66 °FHaze.No wind73%29.68 "Hg2 mi
4:30 am68 °FHaze.No wind69%29.68 "Hg2 mi
4:00 am70 °FHaze.No wind60%29.68 "Hg2 mi
3:30 am72 °FHaze.No wind57%29.68 "Hg2 mi
3:00 am68 °FHaze.No wind64%29.68 "Hg2 mi
2:30 am70 °FHaze.No wind64%29.71 "Hg2 mi
2:00 am72 °FHaze.No wind57%29.68 "Hg2 mi
1:00 am72 °FHaze.No wind57%29.71 "Hg2 mi
12:30 am70 °FHaze.No wind64%29.71 "Hg2 mi
12:00 am72 °FHaze.No wind53%29.71 "Hg2 mi
11:30 pm
Tue, Apr 25
73 °FHaze.No wind57%29.71 "Hg2 mi
11:00 pm75 °FHaze.No wind54%29.71 "Hg2 mi
10:30 pm75 °FHaze.2 mph50%29.71 "Hg2 mi
10:00 pm75 °FHaze.No wind50%29.71 "Hg2 mi
9:30 pm77 °FHaze.No wind51%29.71 "Hg2 mi
9:00 pm81 °FHaze.No wind39%29.71 "Hg2 mi
Weather by CustomWeather, © 2017

See weather overviewHow to use our weather pages